This demonstration page uses our WeatherBlox Daily Observations layout. Learn more.

Left ArrowRight Arrow

36.17497, -115.13722

Hourly Observations for September 19, 2021

Temp ( °F °C ) Dew Point ( °F °C ) Humidity (%) Winds ( mph kmh ) Pressure ( in mb ) Visibility ( mi km ) Precip ( " mm )
12:53 am 00:53 Mostly Cloudy 80 26.7 20 -6.7 10 10 S 10 17 29.86 1011 10 16 N/A
1:53 am 01:53 Cloudy 80 26.7 22 -5.6 11 11 S 12 19 29.85 1011 10 16 N/A
2:53 am 02:53 Mostly Cloudy 74 23.3 25 -3.9 16 16 NNW 6 9 29.85 1011 10 16 N/A
3:53 am 03:53 Clear 73 22.8 25 -3.9 17 17 E 3 6 29.84 1011 10 16 N/A
4:53 am 04:53 Clear 72 22.2 24 -4.4 17 17 NE 6 9 29.84 1011 10 16 N/A
5:53 am 05:53 Clear 68 20 25 -3.9 20 20 E 6 9 29.85 1011 10 16 N/A
6:53 am 06:53 Sunny 69 20.6 27 -2.8 21 21 N N/A 29.85 1011 10 16 N/A
7:53 am 07:53 Sunny 77 25 29 -1.7 17 17 SE 10 17 29.85 1011 10 16 N/A
8:53 am 08:53 Sunny 83 28.3 28 -2.2 13 13 SSW 9 15 29.85 1011 10 16 N/A
9:53 am 09:53 Sunny 87 30.6 24 -4.4 10 10 S 15 24 29.84 1011 10 16 N/A
10:53 am 10:53 Sunny 91 32.8 20 -6.7 7 7 SSW 25 41 29.83 1010 10 16 N/A
11:53 am 11:53 Sunny 93 33.9 17 -8.3 6 6 S 24 39 29.79 1009 10 16 N/A
12:53 pm 12:53 Sunny 93 33.9 22 -5.6 7 7 S 24 39 29.77 1008 10 16 N/A
1:53 pm 13:53 Sunny 94 34.4 24 -4.4 8 8 SSW 22 35 29.76 1008 10 16 N/A
2:53 pm 14:53 Sunny 95 35 28 -2.2 9 9 SSW 21 33 29.74 1007 10 16 N/A
3:53 pm 15:53 Sunny 95 35 30 -1.1 10 10 S 20 31 29.72 1007 10 16 N/A
4:53 pm 16:53 Sunny 94 34.4 33 0.6 12 12 SSW 17 28 29.72 1006 10 16 N/A
5:53 pm 17:53 Sunny 92 33.3 34 1.1 13 13 SSW 21 33 29.73 1007 10 16 N/A
6:53 pm 18:53 Clear 90 32.2 34 1.1 14 14 SSW 16 26 29.73 1007 10 16 N/A
7:53 pm 19:53 Clear 89 31.7 34 1.1 14 14 SW 14 22 29.75 1008 10 16 N/A
8:53 pm 20:53 Clear 87 30.6 34 1.1 15 15 W 8 13 29.78 1009 10 16 N/A
9:53 pm 21:53 Clear 86 30 33 0.6 15 15 W 12 19 29.79 1009 10 16 N/A
10:53 pm 22:53 Clear 84 28.9 34 1.1 17 17 VRB 6 9 29.80 1009 10 16 N/A
11:53 pm 23:53 Clear 81 27.2 35 1.7 19 19 S 6 9 29.82 1010 10 16 N/A

Powered by AerisWeather